Location: Chiroubles
(46.1812°N, 4.6660°E)
Time: 04:31:04
(UTC+00:00)

Transit 4A - Pass Details

Date: 07 December 2020
Orbit: 864 x 980 km, 66.8° (Epoch: 25 January)

Event Time Altitude Azimuth Distance (km) Brightness Sun altitude
Rises 12:45:10 0° 328° (NNW) 3,688 10.7 19.2°
Reaches altitude 10° 12:48:11 10° 340° (NNW) 2,730 10.0 19.1°
Maximum altitude 12:53:36 28° 38° (NE) 1,723 9.0 18.7°
Drops below altitude 10° 12:58:54 10° 96° (E) 2,669 10.2 18.4°
Sets 13:01:47 0° 108° (ESE) 3,592 10.9 18.2°
